Location: *
(47.7167°N, 1.7333°W)
Time: 01:53:40
(UTC+00:00)

STARLINK-1204 - Pass Details

Date: 09 April 2020
Orbit: 548 x 551 km, 53.0° (Epoch: 26 May)

Event Time Altitude Azimuth Distance (km) Brightness Sun altitude
Rises 20:01:50 0° 296° (WNW) 2,728 9.3 -12.4°
Reaches altitude 10° 20:04:07 10° 291° (WNW) 1,831 7.8 -12.7°
Maximum altitude 20:08:07 48° 217° (SW) 730 4.3 -13.3°
Enters shadow 20:10:52 19° 149° (SSE) 1,361 5.1 -13.7°
